#timestamp,LO_Frequency,Hit,StdDev 
1607445275.2,286047567.2,P
1607445295.9,286047565.3,P
1607445315.7,286047567.4,P
1607445335.6,286047567.4,Y
1607445355.4,286047000.5,P
1607445375.3,286047003.9,N
1607445395.1,286047002.3,N
1607445396.0,286047002.3,N
1607445415.8,286047000.8,N
1607445435.7,286046998.1,N
1607445455.5,286046999.4,N
1607445475.3,286046998.3,N
1607445495.2,286046999.4,N
1607445515.0,286046999.3,N
1607445515.9,286046999.3,N
1607445535.8,286046996.5,N
1607445555.6,286046999.1,N
1607445575.4,286046999.2,N
1607445595.3,286046998.2,N
1607445615.1,286047002.3,N
1607445635.9,286047001.9,N
1607445655.7,286047002.5,N
1607445675.5,286047001.6,N
1607445695.4,286047003.7,N
1607445715.2,286047002.9,N
1607445735.0,286047007.1,N
1607445735.9,286047007.1,N
1607445785.8,286047004.6,E
1607445795.7,286047002.3,N
1607445815.6,286046999.5,P
1607445835.4,286046999.2,N
1607445855.2,286046997.4,N
1607445875.1,286046997.7,N
1607445876.0,286046997.7,N
1607445895.8,286046995.4,N
1607445915.7,286046997.8,N
1607445935.5,286046997.8,N
1607445955.3,286046997.4,N
1607445975.2,286046997.4,N
1607445995.0,286046995.6,N
1607445995.9,286046995.6,N
1607446015.7,286046995.5,N
1607446035.6,286046995.3,N
1607446055.4,286046997.6,N
1607446075.3,286046998.0,N
1607446095.1,286046999.0,N
1607446096.0,286046999.0,N
1607446115.8,286046996.6,N
1607446135.7,286046995.2,N
1607446155.5,286046997.7,N
1607446175.3,286046995.0,Y
1607446195.2,286046999.0,P
1607446215.0,286046997.3,P
1607446215.9,286046997.3,P
1607446235.8,286046999.0,N
1607446255.6,286046995.0,Y
1607446275.4,286046998.0,P
1607446295.3,286046996.1,P
1607446315.1,286046994.1,P
1607446335.9,286046994.0,Y
1607446355.7,286046998.7,P
1607446375.5,286046999.4,N
1607446395.4,286046999.4,N
1607446415.2,286046999.6,N
1607446435.0,286046999.1,N
1607446435.9,286046999.1,N
1607446455.8,286046998.4,N
1607446475.6,286046996.9,Y
1607446495.5,286046998.0,P
1607446515.3,286046996.7,P
1607446535.1,286046997.7,N
1607446555.9,286046997.6,Y
1607446575.7,286046999.0,P
1607446595.6,286046999.4,N
1607446615.4,286046997.1,P
1607446635.2,286047000.7,N
1607446655.1,286047000.4,N
1607446656.0,286047000.4,N
1607446675.8,286047002.8,N
1607446695.6,286047003.9,N
1607446715.5,286047002.3,N
1607446735.3,286047000.3,N
1607446755.2,286047002.8,N
1607446775.9,286047002.8,N
1607446795.7,286046999.9,N
